Theta_e
352 351 349 348 350 352 347 346 345 348 353 355 357 357 357 358 359 358 363 363 362 362 361 361 361 360 361 360 361 362 361 360 360 360 359 359 355 356 355 352 352 353
351 352 352 349 349 354 350 349 346 346 350 354 356 357 357 357 358 358 361 362 362 361 363 361 361 361 360 362 360 360 361 359 359 363 360 360 356 357 357 352 351 351
351 351 351 348 348 350 354 351 349 347 350 352 356 357 357 358 357 358 360 361 361 361 362 362 361 362 363 362 361 360 360 358 357 360 360 359 358 358 358 355 350 354
350 350 350 349 348 349 354 353 352 350 351 352 352 357 357 360 356 360 358 366 361 360 362 362 362 362 362 363 361 360 360 360 358 358 358 360 359 360 359 358 354 352
350 350 350 350 349 350 350 354 354 353 353 352 352 355 357 357 356 358 357 362 360 360 362 362 362 362 362 362 362 359 361 358 360 360 360 358 359 359 360 358 357 354
351 351 351 350 349 349 348 351 355 355 355 353 351 352 356 355 357 356 358 360 360 361 361 361 361 361 362 361 362 360 360 360 359 359 359 360 360 360 361 359 356 355
351 351 351 350 349 350 348 348 352 356 355 355 352 349 354 355 356 355 358 358 361 360 360 360 360 360 362 360 361 360 360 359 358 359 357 357 360 358 358 357 357 354
351 352 352 351 349 350 349 348 349 353 355 355 352 349 349 357 355 357 357 357 359 359 358 359 360 359 361 360 360 359 359 363 360 358 356 355 356 356 358 360 360 355
352 352 353 352 350 350 350 349 349 351 355 353 353 350 349 354 356 357 357 357 356 358 357 357 359 358 359 360 359 360 358 359 360 360 357 356 356 355 356 357 358 358
352 353 353 353 351 351 351 351 350 351 355 354 353 351 349 350 356 356 357 357 356 356 357 357 358 358 358 359 359 359 359 358 357 358 359 358 358 358 357 357 356 356
353 353 353 353 352 352 352 352 351 351 354 354 353 352 350 349 354 355 357 357 357 357 357 357 358 358 358 358 360 360 360 359 358 357 358 359 359 359 365 358 357 356
354 353 353 353 353 352 352 353 353 353 353 355 353 351 351 350 352 354 355 357 357 358 358 357 358 358 358 358 359 359 360 360 359 359 358 358 360 360 361 360 359 358
355 354 354 353 354 353 353 353 354 354 353 353 354 351 351 351 352 353 355 356 357 358 358 357 357 359 357 357 357 358 359 359 359 359 359 358 358 359 361 361 361 360
356 356 355 354 354 354 354 354 354 355 353 353 354 351 351 352 353 353 354 356 357 357 358 358 356 357 357 356 356 357 358 358 359 358 358 358 358 358 359 359 360 360
357 357 357 356 355 355 355 354 354 354 354 352 353 352 351 353 354 355 355 355 357 356 356 358 356 355 357 357 356 356 357 357 357 358 358 357 356 357 358 358 359 359
357 357 357 356 356 355 355 354 354 354 354 352 351 351 350 352 353 355 355 355 356 356 355 357 357 357 353 345 348 357 356 357 357 357 357 357 356 355 355 356 357 358
357 357 356 355 356 355 355 355 353 353 353 352 351 351 351 351 353 353 354 355 356 356 355 355 357 358 345 336 338 344 356 356 356 355 356 356 356 355 354 354 356 356
358 357 356 355 356 355 355 355 354 353 352 353 352 352 352 351 351 353 354 355 356 357 356 356 356 351 337 334 336 337 345 358 356 356 356 355 355 355 355 354 353 354
358 357 356 356 356 356 356 356 355 353 352 353 353 354 354 352 350 352 353 354 355 356 356 357 356 346 334 332 333 334 336 350 356 355 356 355 355 354 354 354 353 353
359 358 357 356 357 357 356 355 355 354 353 354 355 355 354 353 352 351 353 354 355 355 357 358 358 347 332 330 330 331 333 341 356 355 355 356 356 356 355 354 353 353
359 359 357 357 357 357 357 355 355 355 354 353 355 355 354 353 352 351 353 355 355 356 357 359 360 341 328 327 327 327 330 336 356 357 356 355 356 357 357 356 354 354
360 359 358 358 357 357 357 356 355 354 354 353 353 355 355 355 355 353 352 354 355 355 355 356 360 335 327 325 325 325 328 345 355 357 357 355 355 356 358 358 357 356
360 359 359 358 358 357 356 356 355 354 355 355 352 353 354 354 354 354 353 353 354 355 355 355 358 338 325 323 323 324 329 350 354 357 358 356 355 355 357 358 359 358
361 360 359 359 358 357 357 357 357 356 355 356 353 351 353 355 355 355 354 354 353 354 356 355 356 340 322 321 321 321 334 352 355 357 357 357 356 355 356 358 360 368
362 361 361 360 359 358 358 357 357 356 355 356 355 353 352 355 356 355 355 355 354 353 355 354 356 343 319 321 320 319 332 353 356 356 356 356 355 354 354 354 354 363
363 362 362 361 360 359 359 359 359 357 356 355 355 354 352 353 356 356 354 355 355 355 354 354 353 354 331 318 318 318 324 353 356 356 355 355 356 354 353 353 353 354
Wind_Speed
12 10 11 10 9 10 10 9 7 7 7 8 8 8 8 7 8 7 8 8 8 6 6 6 6 5 5 6 6 7 6 6 5 5 5 4 3 3 4 4 4 5
14 12 10 9 8 8 10 10 9 9 8 8 7 7 7 7 8 7 8 9 8 7 6 6 6 6 6 5 6 6 6 6 6 5 6 5 5 4 5 5 5 4
14 13 13 12 11 11 12 11 10 10 9 8 8 8 7 8 8 8 8 9 9 8 7 6 6 6 6 5 5 5 6 6 6 6 6 7 5 6 5 5 5 4
15 15 14 14 12 12 10 10 10 9 9 8 9 9 9 8 8 8 8 10 9 8 7 7 7 7 6 6 6 5 5 5 5 5 6 5 6 5 5 3 4 4
16 15 14 13 12 12 10 11 12 11 11 11 9 9 10 8 9 8 9 9 9 9 8 8 7 7 7 6 7 6 5 5 5 4 6 6 6 6 4 4 4 4
14 14 14 14 13 13 12 12 12 12 12 11 12 9 10 10 10 9 10 10 10 10 10 9 8 8 8 7 7 7 6 6 6 5 4 6 6 6 4 4 5 4
15 14 15 13 13 14 14 13 11 12 12 12 11 10 9 11 11 11 11 10 10 10 11 10 9 9 8 8 7 7 7 6 6 6 6 5 5 6 6 5 5 5
15 14 14 13 14 14 14 13 12 12 12 10 12 12 10 11 12 11 10 11 10 10 10 10 10 10 9 9 8 8 8 6 6 8 7 6 4 4 5 5 4 6
15 14 14 15 15 14 15 14 13 12 11 12 11 11 11 10 11 11 12 11 10 9 9 9 10 10 9 9 9 9 9 8 6 7 8 8 7 7 6 5 4 5
15 15 16 16 16 14 15 14 13 12 11 12 11 11 12 10 10 11 11 12 12 11 10 9 10 10 10 10 11 10 10 9 8 7 8 8 8 7 7 6 6 4
17 16 17 17 16 14 16 15 14 13 12 13 12 12 13 11 10 10 11 12 12 12 12 11 11 11 11 10 10 10 10 10 9 7 7 9 8 8 7 7 6 6
17 17 17 18 17 16 16 15 14 14 13 13 13 13 13 13 12 11 11 12 12 12 12 12 10 11 11 11 11 10 10 10 9 8 8 8 9 8 8 7 7 7
17 17 16 17 16 16 14 14 14 14 14 14 14 14 14 14 13 13 11 12 12 12 12 12 11 11 11 11 10 10 10 10 10 10 8 7 8 9 9 8 8 8
16 16 16 16 15 15 14 14 14 14 14 14 13 14 13 15 15 14 13 12 12 12 12 11 11 10 10 10 10 10 10 10 10 10 10 8 7 9 9 9 9 8
15 14 14 14 15 15 14 15 15 14 13 13 13 14 12 13 14 14 14 13 12 12 12 11 11 11 9 10 11 11 10 11 11 11 10 10 9 8 9 9 9 9
14 14 14 14 15 15 15 15 15 14 14 14 14 14 13 12 13 14 14 14 13 13 12 11 10 9 12 17 15 12 11 10 10 10 10 10 10 9 9 9 10 9
14 14 14 15 15 15 14 14 15 14 13 14 14 14 14 12 11 14 14 13 14 13 13 12 10 10 17 17 18 18 12 10 10 10 10 9 9 9 10 10 10 10
14 15 15 15 15 15 15 14 14 14 13 14 14 15 14 13 11 13 14 14 13 13 14 13 12 14 18 18 19 19 16 11 9 9 9 10 9 9 9 9 9 9
15 15 16 16 16 15 14 14 14 14 14 13 16 15 14 14 13 11 13 13 13 13 14 14 12 16 18 20 19 19 19 16 10 9 9 10 10 10 9 8 8 8
15 16 16 16 15 15 14 15 15 15 15 13 13 13 14 14 14 13 12 13 14 14 13 12 13 15 18 19 20 20 20 16 11 11 9 9 10 11 10 9 8 9
17 17 17 16 15 15 15 16 16 14 14 13 12 14 15 15 15 14 12 13 14 13 12 12 12 17 17 18 19 20 20 16 12 10 9 8 8 9 10 10 9 8
17 17 16 16 16 16 16 16 16 15 14 13 12 12 12 13 13 13 12 12 13 14 14 13 12 18 18 19 20 19 19 12 11 11 10 9 8 7 9 10 10 10
17 17 17 16 16 16 17 17 16 16 14 12 12 12 13 14 14 14 13 13 12 13 14 13 12 16 20 20 20 21 15 11 11 10 10 10 9 8 8 8 9 10
17 17 17 16 16 17 17 16 16 14 15 13 13 13 14 14 14 13 13 13 14 12 13 13 12 14 22 21 22 21 18 13 11 11 12 11 10 7 6 6 7 13
16 16 17 17 17 17 16 16 16 15 14 13 13 13 12 12 12 13 13 12 13 14 14 13 12 13 20 22 22 22 19 12 12 11 11 11 10 10 9 7 7 7
15 16 16 17 17 16 14 14 12 12 14 14 13 12 11 11 12 13 14 13 13 13 13 13 11 8 15 21 22 22 23 15 11 11 11 12 11 11 10 10 9 8
Wind_Direction
181 181 181 178 177 179 180 181 183 173 172 170 169 178 177 177 178 177 177 175 185 179 184 178 175 180 170 170 160 167 178 188 187 190 198 194 209 209 226 221 208 197
184 182 183 182 176 175 178 179 181 179 177 177 177 171 176 174 185 179 176 177 181 187 178 176 169 171 174 163 169 163 179 186 189 192 190 194 205 214 224 220 225 234
184 183 183 184 185 181 178 180 178 182 181 182 177 175 178 183 183 185 177 177 179 184 182 174 173 169 166 164 167 172 170 190 190 192 182 193 203 213 220 212 212 220
188 188 187 187 187 186 178 177 180 181 182 180 184 183 184 187 186 180 179 177 176 182 181 176 174 174 173 172 169 179 185 186 199 177 193 192 200 211 227 193 218 222
190 190 190 189 187 186 182 180 181 182 184 188 185 182 186 186 188 180 180 179 177 179 180 181 176 176 179 174 175 181 188 198 212 182 181 199 200 200 228 216 209 216
196 193 190 189 187 184 188 187 185 183 184 184 190 183 187 186 185 183 180 178 180 178 182 180 179 181 180 179 175 179 186 189 206 203 190 189 202 199 215 216 224 205
196 193 192 191 189 189 190 191 189 186 186 186 186 190 184 186 185 185 182 181 178 181 182 181 180 183 183 184 178 181 185 188 193 200 202 205 188 201 210 216 217 225
198 195 194 191 191 190 192 191 192 190 188 182 186 192 187 188 187 184 184 183 181 184 183 182 183 181 182 179 184 183 192 193 193 193 198 204 204 207 214 217 201 206
197 198 195 194 194 192 195 193 193 192 187 188 187 189 193 190 187 183 183 182 185 186 185 187 186 186 182 181 184 184 189 202 192 187 192 197 200 212 217 224 213 203
197 197 196 196 196 195 195 194 193 192 188 190 189 187 191 193 186 184 181 183 186 187 189 190 190 190 189 185 184 185 189 195 200 187 192 196 197 202 210 216 222 208
198 197 198 197 197 196 196 195 193 192 191 191 189 190 190 190 188 184 181 184 188 189 191 192 192 190 190 189 186 187 188 191 198 198 193 196 199 199 202 206 216 219
197 197 198 198 197 198 197 195 193 192 192 193 191 190 188 191 188 187 184 187 190 191 193 195 192 192 191 190 188 187 188 191 196 202 200 194 195 199 202 203 212 220
196 197 197 197 197 197 196 196 196 193 192 193 193 193 189 189 189 189 189 188 192 192 193 195 192 193 193 192 190 189 190 192 196 203 204 199 201 199 201 203 208 213
196 195 196 197 196 196 196 196 196 194 193 193 192 196 194 191 189 189 190 191 192 195 195 192 193 192 192 194 192 191 190 195 198 200 205 206 203 204 204 206 208 210
192 193 195 195 195 195 196 195 195 194 192 191 193 198 199 195 191 189 188 191 192 194 195 194 195 197 193 193 194 195 193 197 200 200 201 207 210 206 205 207 209 213
188 190 192 193 195 196 197 195 194 193 191 191 193 196 199 197 192 190 190 191 191 192 194 195 198 200 201 195 194 195 197 200 199 202 202 204 207 211 213 212 213 214
187 189 190 193 195 196 196 196 195 193 191 191 192 193 196 198 192 192 193 193 193 192 194 197 198 201 200 197 198 198 197 200 197 202 205 204 203 205 212 212 217 218
187 188 190 193 194 196 195 197 196 195 194 190 190 190 193 195 195 194 193 193 195 195 196 198 201 200 194 196 198 200 200 200 200 201 204 207 207 207 210 211 214 216
185 189 191 192 194 194 194 196 197 197 197 192 191 190 189 193 196 190 193 193 194 195 198 200 203 200 192 194 197 199 201 202 207 204 201 206 210 211 211 210 212 216
185 188 192 193 191 192 193 196 198 200 199 194 191 188 191 194 196 193 190 193 194 195 197 200 203 202 194 193 196 197 201 201 210 209 209 209 209 211 214 213 211 212
186 188 190 191 192 191 193 197 199 200 199 196 191 190 191 193 195 196 191 192 194 193 194 198 204 198 193 194 195 196 199 198 210 211 215 217 213 211 212 216 215 213
185 187 189 190 191 192 194 196 198 198 199 197 194 193 194 193 197 197 194 192 193 193 193 198 201 190 190 192 195 197 194 196 206 211 215 218 218 211 210 214 216 216
186 186 188 190 191 194 196 196 195 197 199 196 197 193 190 193 195 196 196 194 192 194 196 198 199 188 188 191 193 195 186 199 202 209 214 217 220 215 213 212 214 216
185 186 188 190 192 197 197 197 195 195 198 195 198 195 193 194 193 196 196 198 197 194 194 196 200 190 189 190 192 190 187 195 199 204 213 218 225 223 216 217 219 222
186 186 188 190 194 198 197 197 196 195 195 195 201 200 197 190 192 195 197 198 201 202 194 190 198 190 191 191 192 188 190 196 195 201 208 216 219 227 229 229 234 237
188 188 189 191 194 195 195 198 197 197 196 197 199 201 198 191 190 194 196 198 198 202 203 202 197 177 192 196 192 190 190 191 193 194 207 213 216 217 224 232 237 243